GW4824 Weather Reports


time (UTC)temp
F
wind
direction
speed
knots
gust
knots
rain 1hr
in
rain 24hr
in
rain mn
in
humidity
%
barometer
mb
20260506185334 57 178 0.0 1.7 0.00 0.36 0.36 59 1011.7
20260506184831 58 122 0.0 0.9 0.00 0.36 0.36 51 1011.5
20260506184328 59 299 1.7 2.6 0.00 0.36 0.36 63 1011.5
20260506183825 58 98 0.0 0.0 0.00 0.36 0.36 55 1011.7
20260506183320 58 88 0.0 0.0 0.00 0.36 0.36 54 1011.6
20260506182818 59 113 0.9 1.7 0.00 0.36 0.36 51 1011.4
20260506182315 58 66 0.9 1.7 0.00 0.36 0.36 56 1011.3
20260506181813 58 100 0.0 0.9 0.00 0.36 0.36 59 1011.5
20260506181310 59 77 1.7 1.7 0.00 0.36 0.36 55 1011.4
20260506180807 59 94 0.0 0.0 0.00 0.36 0.36 50 1011.5
20260506180303 59 256 0.9 0.9 0.00 0.36 0.36 62 1011.5
20260506175759 59 103 0.0 0.9 0.00 0.36 0.36 58 1011.4
20260506175256 58 131 0.9 1.7 0.00 0.36 0.36 58 1011.7
20260506174754 58 133 0.9 1.7 0.00 0.36 0.36 55 1011.6
20260506174251 57 139 0.9 1.7 0.00 0.36 0.36 59 1011.4
20260506173749 59 189 1.7 1.7 0.00 0.36 0.36 50 1011.3
20260506173245 59 121 0.0 0.0 0.00 0.36 0.36 51 1011.2
20260506172742 60 115 0.9 0.9 0.00 0.36 0.36 47 1011.3
20260506172238 59 112 0.0 0.9 0.00 0.36 0.36 63 1011.3
20260506171736 57 102 1.7 1.7 0.00 0.36 0.36 54 1011.5
20260506171233 57 72 1.7 1.7 0.00 0.36 0.36 57 1011.5
20260506170731 57 101 0.0 0.9 0.00 0.36 0.36 54 1011.3
20260506170227 57 241 1.7 2.6 0.00 0.36 0.36 56 1011.5
20260506165726 57 289 1.7 1.7 0.00 0.36 0.36 58 1011.3
20260506165222 57 46 2.6 2.6 0.00 0.36 0.36 57 1011.4
20260506164715 59 261 0.9 1.7 0.00 0.36 0.36 61 1011.4
20260506164211 58 111 0.9 0.9 0.00 0.36 0.36 62 1011.5
20260506163708 57 354 1.7 1.7 0.00 0.36 0.36 56 1011.5
20260506163203 56 59 0.9 0.9 0.00 0.36 0.36 62 1011.4
20260506162659 56 340 0.0 0.9 0.00 0.36 0.36 59 1011.6
20260506162157 56 123 0.9 0.9 0.00 0.36 0.36 63 1011.4
20260506161654 56 147 0.9 0.9 0.00 0.36 0.36 62 1011.3
20260506161150 57 132 0.0 0.9 0.00 0.36 0.36 66 1011.4
20260506160648 56 161 0.9 0.9 0.00 0.36 0.36 68 1011.2
20260506160145 56 82 0.9 0.9 0.00 0.36 0.36 67 1011.3
20260506155643 55 348 0.9 1.7 0.00 0.36 0.36 62 1011.1
20260506155140 54 102 0.0 0.9 0.00 0.36 0.36 66 1011.0
20260506153242 55 68 1.7 2.6 0.00 0.36 0.36 66 1010.7
20260506152739 55 288 0.0 0.9 0.00 0.36 0.36 69 1010.6
20260506152237 54 80 0.0 0.0 0.00 0.36 0.36 72 1010.9
20260506151736 53 109 0.0 0.0 0.00 0.36 0.36 73 1010.9
20260506151232 53 91 0.0 0.0 0.00 0.36 0.36 71 1011.0
20260506150728 53 107 0.9 0.9 0.00 0.36 0.36 76 1010.8
20260506150226 53 51 0.9 0.9 0.00 0.36 0.36 75 1011.0
20260506145722 52 71 0.9 0.9 0.00 0.36 0.36 72 1010.8
20260506145219 52 95 0.0 0.0 0.00 0.36 0.36 80 1010.7
20260506144716 52 323 0.9 0.9 0.00 0.36 0.36 79 1010.6
20260506144213 52 58 0.9 0.9 0.00 0.36 0.36 82 1010.3
20260506143710 51 106 0.0 0.9 0.00 0.36 0.36 77 1010.3
20260506143208 52 204 0.0 0.9 0.00 0.36 0.36 82 1010.1
20260506142707 51 108 0.9 1.7 0.00 0.36 0.36 79 1010.2
20260506142204 50 124 0.0 0.0 0.00 0.36 0.36 84 1010.1
20260506141702 49 110 0.0 0.0 0.00 0.36 0.36 88 1010.0
20260506141200 49 172 0.0 0.9 0.00 0.36 0.36 90 1010.3
20260506140657 48 140 0.0 0.9 0.00 0.36 0.36 90 1010.0
20260506140154 48 110 0.0 0.0 0.00 0.36 0.36 92 1010.0
20260506135651 48 80 0.9 0.9 0.00 0.36 0.36 91 1010.0
20260506135147 47 85 0.0 0.0 0.00 0.36 0.36 93 1010.0
20260506134644 47 80 0.0 0.0 0.00 0.36 0.36 93 1010.0
20260506134140 46 102 0.0 0.0 0.00 0.36 0.36 95 1010.0
20260506133637 46 53 0.0 0.9 0.00 0.36 0.36 96 1010.0
20260506133134 46 107 0.0 0.0 0.00 0.36 0.36 96 1010.0
20260506132632 46 91 0.0 0.0 0.00 0.36 0.36 96 1010.1
20260506132128 46 128 0.0 0.0 0.00 0.36 0.36 97 1009.9
20260506131626 46 91 0.9 1.7 0.00 0.36 0.36 97 1010.0
20260506131121 46 93 0.0 0.0 0.00 0.36 0.36 98 1009.7
20260506130619 45 107 0.0 0.0 0.00 0.36 0.36 98 1010.0
20260506130116 46 105 0.0 0.0 0.00 0.36 0.36 99 1009.9
20260506125615 45 252 0.9 0.9 0.00 0.36 0.36 99 1009.3
20260506125112 46 101 1.7 2.6 0.00 0.36 0.36 99 1009.1
20260506124610 46 97 0.0 0.0 0.00 0.36 0.36 99 1009.2
20260506124107 45 96 0.0 0.0 0.00 0.36 0.36 99 1009.2
20260506123604 45 118 0.0 0.0 0.00 0.36 0.36 99 1008.9
20260506123103 45 98 0.0 0.0 0.00 0.36 0.36 99 1008.8
20260506122559 45 103 0.0 0.0 0.00 0.36 0.36 99 1008.7
20260506122057 44 109 0.0 0.0 0.00 0.36 0.36 99 1008.7
20260506121555 45 107 0.0 0.0 0.00 0.36 0.36 99 1009.0
20260506121051 45 105 0.0 0.0 0.00 0.36 0.36 99 1008.9
20260506120549 45 103 0.0 0.0 0.00 0.36 0.36 99 1008.8
20260506120046 45 81 0.0 0.0 0.00 0.36 0.36 99 1008.5
20260506115544 45 100 0.0 0.0 0.00 0.36 0.36 99 1008.7
20260506115042 45 92 0.0 0.9 0.00 0.36 0.36 99 1008.4
20260506114539 45 94 0.0 0.0 0.00 0.36 0.36 99 1008.2
20260506114037 45 59 0.0 0.9 0.00 0.36 0.36 99 1008.3
20260506113535 45 86 0.0 0.0 0.00 0.36 0.36 99 1008.4
20260506113032 45 89 0.0 0.0 0.00 0.36 0.36 99 1008.1
20260506112528 45 63 0.0 0.9 0.00 0.36 0.36 99 1007.7
20260506112026 45 60 0.0 0.9 0.00 0.36 0.36 99 1007.9
20260506111524 45 59 0.0 0.0 0.00 0.36 0.36 99 1008.1
20260506111021 45 93 0.0 0.0 0.00 0.36 0.36 99 1008.3
20260506110519 45 26 0.0 0.9 0.00 0.36 0.36 99 1008.0
20260506110016 45 157 0.0 0.0 0.00 0.36 0.36 99 1007.6
20260506105511 45 102 0.0 0.0 0.00 0.36 0.36 99 1007.9
20260506105009 45 98 0.0 0.0 0.00 0.36 0.36 99 1007.8
20260506104507 45 90 0.0 0.0 0.00 0.36 0.36 99 1008.1
20260506104005 45 81 0.0 0.0 0.00 0.36 0.36 99 1008.4
20260506103501 45 109 0.0 0.0 0.00 0.36 0.36 99 1008.0
20260506102958 45 105 0.0 0.0 0.00 0.36 0.36 99 1008.0
20260506102456 45 98 0.0 0.0 0.00 0.36 0.36 99 1007.3
20260506101953 45 106 0.0 0.9 0.00 0.36 0.36 99 1007.3
20260506101449 45 100 0.0 0.0 0.00 0.36 0.36 99 1007.3
20260506100947 45 113 0.0 0.0 0.00 0.36 0.36 99 1006.6
20260506100445 45 93 0.0 0.0 0.00 0.36 0.36 99 1006.9
20260506095943 45 98 0.0 0.0 0.00 0.36 0.36 99 1006.6
20260506095441 45 107 0.0 0.0 0.00 0.36 0.36 99 1005.9
20260506094936 45 118 0.0 0.0 0.00 0.36 0.36 99 1006.5
20260506094435 45 84 0.0 0.0 0.00 0.36 0.36 99 1006.7
20260506093932 45 118 1.7 1.7 0.00 0.36 0.36 99 1006.8
20260506093431 45 94 0.0 0.0 0.05 0.36 0.36 99 1006.9
20260506092928 45 106 0.0 0.0 0.05 0.36 0.36 99 1007.1
20260506092426 45 98 0.0 0.0 0.07 0.35 0.35 99 1006.9
20260506091922 45 93 0.0 0.0 0.07 0.35 0.35 99 1006.9
20260506091420 45 96 0.0 0.0 0.05 0.34 0.34 99 1007.2
20260506090917 45 99 0.0 0.0 0.05 0.34 0.34 99 1007.2
20260506090415 45 87 0.0 0.0 0.07 0.33 0.33 99 1007.2
20260506085911 45 96 0.0 0.0 0.07 0.33 0.33 99 1007.3
20260506085408 45 94 0.0 0.0 0.00 0.32 0.32 99 1007.3
20260506084904 45 90 0.0 0.0 0.05 0.32 0.32 99 1007.1
20260506084401 45 89 0.0 0.9 0.05 0.32 0.32 99 1006.9
20260506083857 45 88 0.0 0.9 0.07 0.31 0.31 99 1007.2
20260506083355 45 96 0.0 0.0 0.07 0.31 0.31 99 1007.1
20260506082852 45 110 0.0 0.0 0.00 0.30 0.30 99 1007.2
20260506082349 45 125 0.0 0.0 0.00 0.30 0.30 99 1006.9
20260506081845 45 92 0.9 0.9 0.00 0.30 0.30 99 1006.9
20260506081344 45 98 0.0 0.0 0.00 0.30 0.30 99 1007.2
20260506080841 45 51 0.9 1.7 0.05 0.30 0.30 99 1006.9
20260506080337 46 101 0.9 1.7 0.12 0.30 0.30 99 1006.8
20260506073321 48 83 0.0 0.0 0.14 0.25 0.25 99 1006.5
20260506072818 48 95 0.0 0.0 0.12 0.24 0.24 99 1006.4
20260506072315 48 89 0.0 0.0 0.12 0.23 0.23 99 1006.3
20260506071813 48 100 0.0 0.0 0.12 0.22 0.22 99 1006.3
20260506071311 48 112 0.0 0.0 0.24 0.22 0.22 99 1006.2
20260506070807 48 93 0.0 0.9 0.24 0.20 0.20 99 1006.5
20260506070304 48 98 0.0 0.0 0.24 0.18 0.18 99 1006.7
20260506062241 49 96 0.0 0.0 0.12 0.09 0.09 99 1006.3
20260506061737 49 93 0.0 0.0 0.12 0.08 0.08 99 1006.0
20260506061235 49 100 0.0 0.0 0.12 0.08 0.08 99 1006.2
20260506060734 49 84 0.0 0.0 0.07 0.07 0.07 99 1006.3
20260506060231 49 98 0.0 0.0 0.00 0.06 0.06 99 1006.6
20260506051202 49 75 0.0 0.0 0.00 0.01 0.01 99 1006.9
20260506050700 49 109 0.0 0.0 0.00 0.01 0.01 99 1007.2
20260506050157 50 98 0.0 0.0 0.00 0.01 0.01 99 1006.8
20260506044648 50 97 0.0 0.0 0.00 0.01 0.01 99 1006.9
20260506044145 50 110 0.0 0.0 0.00 0.01 0.01 99 1007.1
20260506043642 50 97 0.0 0.0 0.07 0.01 0.01 99 1006.8
20260506043140 50 94 0.0 0.0 0.07 0.01 0.01 99 1006.9
20260506042639 50 105 0.0 0.0 0.00 0.00 0.00 99 1007.2
20260506042136 50 105 0.0 0.0 0.00 0.00 0.00 99 1007.3
20260506041635 50 80 0.0 0.0 0.00 0.00 0.00 99 1007.3
20260506041131 51 133 0.9 0.9 0.00 0.00 0.00 99 1007.3
20260506040629 51 97 0.0 0.9 0.05 0.00 0.00 99 1006.8
20260506040126 51 59 0.9 0.9 0.05 0.00 0.00 99 1007.2
20260506035622 51 101 0.0 0.0 0.00 0.59 0.59 99 1007.2
20260506035119 51 111 0.0 0.0 0.07 0.59 0.59 99 1007.5
20260506034616 51 129 0.9 0.9 0.07 0.59 0.59 99 1007.4
20260506034113 51 116 0.0 0.0 0.07 0.58 0.58 99 1007.6
20260506033611 51 76 0.9 0.9 0.07 0.58 0.58 99 1007.5
20260506033108 51 45 0.0 0.9 0.12 0.57 0.57 99 1007.7
20260506032605 52 101 0.0 0.0 0.17 0.57 0.57 99 1007.7
20260506032102 52 108 0.0 0.0 0.17 0.55 0.55 99 1007.9
20260506031559 53 143 0.0 0.9 0.12 0.54 0.54 99 1007.7
20260506031056 53 191 0.9 0.9 0.12 0.53 0.53 99 1007.8
20260506030554 54 66 0.0 0.0 0.12 0.52 0.52 99 1007.6
20260506030051 55 109 0.0 0.9 0.12 0.51 0.51 99 1007.8
20260506025548 57 63 0.9 0.9 0.12 0.50 0.50 99 1007.3
20260506025044 57 310 0.9 1.7 0.05 0.49 0.49 99 1007.3
20260506024541 57 113 0.9 0.9 0.12 0.49 0.49 99 1007.2
20260506024037 57 110 0.0 0.0 0.14 0.48 0.48 99 1007.2
20260506023533 57 125 0.0 0.9 0.12 0.47 0.47 99 1007.3
20260506023031 57 113 0.0 0.0 0.12 0.46 0.46 99 1007.4
20260506022528 57 133 0.0 0.0 0.12 0.45 0.45 99 1007.5
20260506022026 57 133 0.0 0.9 0.05 0.44 0.44 99 1007.4
20260506021523 57 108 0.0 0.0 0.07 0.43 0.43 99 1007.6
20260506021020 57 114 0.0 0.0 0.07 0.43 0.43 99 1007.7
20260506020518 57 110 0.0 0.0 0.00 0.42 0.42 99 1007.4
20260506020015 57 118 0.0 0.0 0.00 0.42 0.42 99 1007.5
20260506015512 57 124 0.0 0.0 0.05 0.42 0.42 99 1007.7
20260506015009 58 107 0.0 0.0 0.12 0.42 0.42 99 1007.5
20260506014507 58 0 0.9 0.9 0.07 0.41 0.41 99 1007.6
20260506014002 58 117 0.0 0.9 0.00 0.40 0.40 99 1007.5
20260506013500 58 72 0.9 0.9 0.00 0.40 0.40 99 1007.5
20260506012956 58 85 0.9 0.9 0.05 0.40 0.40 99 1007.5
20260506012453 58 90 0.0 0.9 0.05 0.40 0.40 99 1007.4
20260506011950 58 181 0.0 0.9 0.07 0.39 0.39 99 1007.2
20260506011447 58 99 0.0 0.0 0.24 0.39 0.39 99 1007.4
20260506010944 58 88 0.9 0.9 0.31 0.38 0.38 99 1007.3
20260506010443 58 260 0.9 0.9 0.35 0.36 0.36 99 1007.4
20260506005939 58 102 0.0 0.0 0.24 0.33 0.33 99 1007.1
20260506005437 58 116 0.0 0.0 0.12 0.30 0.30 99 1007.1
20260506004932 58 110 0.0 0.0 0.12 0.29 0.29 99 1006.9
20260506004430 58 113 0.0 0.0 0.07 0.28 0.28 99 1007.1
20260506003925 58 115 0.0 0.0 0.05 0.27 0.27 99 1007.1
20260506003422 58 117 0.0 0.0 0.05 0.27 0.27 99 1007.2
20260506002919 58 113 0.0 0.0 0.00 0.26 0.26 99 1007.1
20260506002415 58 114 0.0 0.0 0.00 0.26 0.26 99 1007.2
20260506001910 58 114 0.0 0.0 0.00 0.26 0.26 99 1007.1
20260506001408 58 114 0.0 0.0 0.00 0.26 0.26 99 1007.1
20260506000905 58 116 0.0 0.0 0.07 0.26 0.26 99 1007.2
20260506000403 58 107 0.0 0.0 0.07 0.26 0.26 99 1007.1
20260505235859 58 113 0.0 0.0 0.00 0.25 0.25 99 1006.9
20260505235357 58 111 0.0 0.0 0.00 0.25 0.25 98 1007.4
20260505234853 58 110 0.0 0.0 0.05 0.25 0.25 98 1007.4
20260505234351 58 109 0.0 0.0 0.17 0.25 0.25 98 1007.3
20260505233848 58 107 0.9 0.9 0.12 0.24 0.24 98 1007.4
20260505233346 58 132 0.0 0.9 0.00 0.22 0.22 98 1007.5
20260505232843 58 130 0.0 0.9 0.00 0.22 0.22 98 1007.3
20260505232341 58 113 0.9 0.9 0.00 0.22 0.22 98 1007.5
20260505231837 58 110 0.0 0.0 0.00 0.22 0.22 98 1007.3
20260505231335 58 111 0.0 0.9 0.00 0.22 0.22 98 1007.5
20260505230833 58 113 0.0 0.0 0.00 0.22 0.22 98 1007.4
20260505230330 58 96 0.0 0.9 0.07 0.22 0.22 98 1007.6
20260505225826 58 79 0.0 0.9 0.07 0.22 0.22 97 1007.5
20260505225324 58 130 0.0 0.0 0.00 0.21 0.21 97 1007.6
20260505224819 58 113 0.0 0.0 0.07 0.21 0.21 97 1007.5
20260505224317 58 131 0.9 1.7 0.12 0.21 0.21 97 1007.8
20260505223814 58 142 0.9 0.9 0.12 0.20 0.20 96 1007.8
20260505223311 58 110 0.9 0.9 0.12 0.19 0.19 96 1007.9
20260505222806 58 181 0.0 0.9 0.17 0.18 0.18 96 1007.8
20260505222305 58 255 1.7 1.7 0.31 0.17 0.17 95 1007.7
20260505221800 59 167 0.0 0.9 0.31 0.15 0.15 94 1007.6
20260505221257 60 196 1.7 2.6 0.66 0.13 0.13 93 1007.6
20260505220754 62 166 1.7 1.7 0.47 0.10 0.10 89 1007.7
20260505220251 64 343 0.9 1.7 0.00 0.02 0.02 79 1006.7
20260505215749 66 228 0.9 1.7 0.00 0.02 0.02 71 1006.4
20260505215246 66 122 1.7 2.6 0.00 0.02 0.02 67 1006.3
20260505214744 66 274 2.6 2.6 0.00 0.02 0.02 68 1006.5
20260505214241 66 133 1.7 1.7 0.00 0.02 0.02 68 1006.4
20260505213738 66 66 0.0 0.0 0.00 0.02 0.02 69 1006.3
20260505213236 66 127 0.9 1.7 0.00 0.02 0.02 69 1006.5
20260505212731 65 350 0.9 0.9 0.00 0.02 0.02 69 1006.4
20260505212229 65 122 0.0 0.0 0.00 0.02 0.02 70 1006.3
20260505211726 66 106 0.0 0.0 0.00 0.02 0.02 72 1006.2
20260505211223 66 110 0.0 0.0 0.00 0.02 0.02 71 1006.4
20260505210719 65 135 1.7 1.7 0.00 0.02 0.02 71 1006.5
20260505210216 65 73 0.0 0.0 0.00 0.02 0.02 71 1006.5
20260505205714 65 90 0.0 0.0 0.00 0.02 0.02 71 1006.9
20260505205212 65 119 0.0 0.0 0.00 0.02 0.02 70 1006.6
20260505204708 66 108 0.0 0.0 0.00 0.02 0.02 70 1006.6
20260505204206 66 126 0.0 0.9 0.00 0.02 0.02 67 1006.8
20260505203703 66 134 0.9 0.9 0.00 0.02 0.02 69 1007.1
20260505203200 66 154 0.9 0.9 0.00 0.02 0.02 69 1006.8
20260505202655 66 222 1.7 2.6 0.00 0.02 0.02 68 1006.8
20260505202152 66 140 1.7 1.7 0.00 0.02 0.02 68 1007.2
20260505201648 66 277 1.7 1.7 0.00 0.02 0.02 68 1007.3
20260505201146 66 126 0.9 0.9 0.00 0.02 0.02 69 1007.2
20260505200644 66 158 1.7 2.6 0.00 0.02 0.02 67 1007.3
20260505200141 66 229 0.0 0.9 0.00 0.02 0.02 69 1007.3
20260505195637 65 121 0.0 0.0 0.00 0.02 0.02 71 1007.4
20260505195134 66 109 0.0 0.0 0.00 0.02 0.02 70 1007.4
20260505194631 66 195 0.9 0.9 0.00 0.02 0.02 70 1007.5
20260505194127 66 135 0.9 0.9 0.00 0.02 0.02 70 1007.4
20260505193624 66 130 0.9 0.9 0.00 0.02 0.02 69 1007.6
20260505193121 66 145 0.9 0.9 0.00 0.02 0.02 70 1007.6
20260505192620 66 120 0.9 0.9 0.00 0.02 0.02 70 1007.8
20260505192117 66 116 0.9 1.7 0.00 0.02 0.02 69 1007.9
20260505191615 66 273 2.6 3.5 0.00 0.02 0.02 68 1007.7
20260505191113 66 201 1.7 1.7 0.00 0.02 0.02 69 1007.6
20260505190608 66 287 1.7 2.6 0.00 0.02 0.02 68 1007.5
20260505190103 66 320 1.7 1.7 0.00 0.02 0.02 68 1007.6